Location: Unspecified
(0.0000°N, 0.0000°E)
Time: 20:51:42
(UTC+00:00)

N. Korean satellite - Pass Details

Date: 21 March 2017
Orbit: 461 x 520 km, 97.2° (Epoch: 25 March)

Event Time Altitude Azimuth Distance (km) Brightness Sun altitude
Rises 19:38:11 0° 205° (SSW) 2,628 10.6 -22.8°
Reaches altitude 10° 19:41:39 10° 239° (WSW) 1,727 10.1 -23.7°
Maximum altitude 19:42:51 11° 258° (WSW) 1,641 10.2 -24.0°
Drops below altitude 10° 19:44:02 10° 277° (W) 1,715 10.4 -24.2°
Sets 19:47:28 0° 312° (NW) 2,580 11.0 -25.1°
